Time,TemperatureF,DewpointF,PressureIn,WindDirection,WindDirectionDegrees,WindSpeedMPH,WindSpeedGustMPH,Humidity,HourlyPrecipIn,Conditions,Clouds,dailyrainin,SolarRadiationWatts/m^2,SoftwareType,DateUTC
2013-03-01 00:01:00,52.0,52.0,-100.00,SSW,207,3.0,11.0,100,0.01,,,1.37,0.000000,,2013-03-01 08:01:00,
2013-03-01 00:11:00,52.0,52.0,-100.00,SSW,207,3.0,11.0,100,0.01,,,1.37,0.000000,,2013-03-01 08:11:00,
2013-03-01 00:32:00,51.0,51.0,-100.00,South,189,4.0,12.0,100,0.02,,,1.38,0.000000,,2013-03-01 08:32:00,
2013-03-01 00:43:00,51.0,51.0,-100.00,South,189,4.0,12.0,100,0.02,,,1.38,0.000000,,2013-03-01 08:43:00,
2013-03-01 00:53:00,51.0,51.0,-100.00,South,189,4.0,12.0,100,0.02,,,1.38,0.000000,,2013-03-01 08:53:00,
2013-03-01 01:02:00,51.0,51.0,-100.00,South,189,4.0,12.0,100,0.02,,,1.38,0.000000,,2013-03-01 09:02:00,
2013-03-01 01:11:00,51.0,51.0,-100.00,South,189,4.0,12.0,100,0.02,,,1.38,0.000000,,2013-03-01 09:11:00,
2013-03-01 01:32:00,51.0,51.0,-100.00,SSW,199,5.0,11.0,100,0.04,,,1.39,0.000000,,2013-03-01 09:32:00,
2013-03-01 01:42:00,51.0,51.0,-100.00,SSW,199,5.0,11.0,100,0.04,,,1.39,0.000000,,2013-03-01 09:42:00,
2013-03-01 01:52:00,51.0,51.0,-100.00,SSW,199,5.0,11.0,100,0.04,,,1.39,0.000000,,2013-03-01 09:52:00,
2013-03-01 02:01:00,51.0,51.0,-100.00,SSW,199,5.0,11.0,100,0.04,,,1.39,0.000000,,2013-03-01 10:01:00,
2013-03-01 02:11:00,51.0,51.0,-100.00,SSW,199,5.0,11.0,100,0.04,,,1.39,0.000000,,2013-03-01 10:11:00,
2013-03-01 02:32:00,51.0,51.0,-100.00,SW,217,8.0,14.0,100,0.01,,,1.34,0.000000,,2013-03-01 10:32:00,
2013-03-01 02:42:00,51.0,51.0,-100.00,SW,217,8.0,14.0,100,0.01,,,1.34,0.000000,,2013-03-01 10:42:00,
2013-03-01 02:52:00,51.0,51.0,-100.00,SW,217,8.0,14.0,100,0.01,,,1.34,0.000000,,2013-03-01 10:52:00,
2013-03-01 03:01:00,51.0,51.0,-100.00,SW,217,8.0,14.0,100,0.01,,,1.34,0.000000,,2013-03-01 11:01:00,
2013-03-01 03:11:00,51.0,51.0,-100.00,SW,217,8.0,14.0,100,0.01,,,1.34,0.000000,,2013-03-01 11:11:00,
2013-03-01 03:32:00,51.0,51.0,-100.00,WSW,252,2.0,17.0,100,0.00,,,1.26,0.000000,,2013-03-01 11:32:00,
2013-03-01 03:42:00,51.0,51.0,-100.00,WSW,252,2.0,17.0,100,0.00,,,1.26,0.000000,,2013-03-01 11:42:00,
2013-03-01 03:52:00,51.0,51.0,-100.00,WSW,252,2.0,17.0,100,0.00,,,1.26,0.000000,,2013-03-01 11:52:00,
2013-03-01 04:01:00,51.0,51.0,-100.00,WSW,252,2.0,17.0,100,0.00,,,1.26,0.000000,,2013-03-01 12:01:00,
2013-03-01 04:11:00,51.0,51.0,-100.00,WSW,252,2.0,17.0,100,0.00,,,1.26,0.000000,,2013-03-01 12:11:00,
2013-03-01 04:32:00,50.0,50.0,-100.00,WSW,237,0.0,3.0,100,0.00,,,1.22,0.000000,,2013-03-01 12:32:00,
2013-03-01 04:42:00,50.0,50.0,-100.00,WSW,237,0.0,3.0,100,0.00,,,1.22,0.000000,,2013-03-01 12:42:00,
2013-03-01 04:52:00,50.0,50.0,-100.00,WSW,237,0.0,3.0,100,0.00,,,1.22,0.000000,,2013-03-01 12:52:00,
2013-03-01 05:01:00,50.0,50.0,-100.00,WSW,237,0.0,3.0,100,0.00,,,1.22,0.000000,,2013-03-01 13:01:00,
2013-03-01 05:11:00,50.0,50.0,-100.00,WSW,237,0.0,3.0,100,0.00,,,1.22,0.000000,,2013-03-01 13:11:00,
2013-03-01 05:32:00,50.0,50.0,-100.00,SW,234,4.0,8.0,100,0.01,,,1.21,0.000000,,2013-03-01 13:32:00,
2013-03-01 05:42:00,50.0,50.0,-100.00,SW,234,4.0,8.0,100,0.01,,,1.21,0.000000,,2013-03-01 13:42:00,
2013-03-01 05:52:00,50.0,50.0,-100.00,SW,234,4.0,8.0,100,0.01,,,1.21,0.000000,,2013-03-01 13:52:00,
2013-03-01 06:01:00,50.0,50.0,-100.00,SW,234,4.0,8.0,100,0.01,,,1.21,0.000000,,2013-03-01 14:01:00,
2013-03-01 06:11:00,50.0,50.0,-100.00,SW,234,4.0,8.0,100,0.01,,,1.21,0.000000,,2013-03-01 14:11:00,
2013-03-01 06:32:00,51.0,51.0,-100.00,SSW,201,4.0,8.0,100,0.00,,,1.16,0.000000,,2013-03-01 14:32:00,
2013-03-01 06:42:00,51.0,51.0,-100.00,SSW,201,4.0,8.0,100,0.00,,,1.16,0.000000,,2013-03-01 14:42:00,
2013-03-01 06:52:00,51.0,51.0,-100.00,SSW,201,4.0,8.0,100,0.00,,,1.16,0.000000,,2013-03-01 14:52:00,
2013-03-01 07:01:00,51.0,51.0,-100.00,SSW,201,4.0,8.0,100,0.00,,,1.16,0.000000,,2013-03-01 15:01:00,
2013-03-01 07:11:00,51.0,51.0,-100.00,SSW,201,4.0,8.0,100,0.00,,,1.16,0.000000,,2013-03-01 15:11:00,
2013-03-01 07:32:00,50.0,50.0,-100.00,North,349,4.0,8.0,100,0.00,,,1.04,0.000000,,2013-03-01 15:32:00,
2013-03-01 07:42:00,50.0,50.0,-100.00,North,349,4.0,8.0,100,0.00,,,1.04,0.000000,,2013-03-01 15:42:00,
2013-03-01 07:52:00,50.0,50.0,-100.00,North,349,4.0,8.0,100,0.00,,,1.04,0.000000,,2013-03-01 15:52:00,
2013-03-01 08:01:00,50.0,50.0,-100.00,North,349,4.0,8.0,100,0.00,,,1.04,0.000000,,2013-03-01 16:01:00,
2013-03-01 08:11:00,50.0,50.0,-100.00,North,349,4.0,8.0,100,0.00,,,1.04,0.000000,,2013-03-01 16:11:00,
2013-03-01 08:32:00,51.0,51.0,-100.00,South,179,1.0,5.0,100,0.00,,,0.85,8.000000,,2013-03-01 16:32:00,
2013-03-01 08:42:00,51.0,51.0,-100.00,South,179,1.0,5.0,100,0.00,,,0.85,8.000000,,2013-03-01 16:42:00,
2013-03-01 08:52:00,51.0,51.0,-100.00,South,179,1.0,5.0,100,0.00,,,0.85,8.000000,,2013-03-01 16:52:00,
2013-03-01 09:01:00,51.0,51.0,-100.00,South,179,1.0,5.0,100,0.00,,,0.85,8.000000,,2013-03-01 17:01:00,
2013-03-01 09:11:00,51.0,51.0,-100.00,South,179,1.0,5.0,100,0.00,,,0.85,8.000000,,2013-03-01 17:11:00,
2013-03-01 09:32:00,51.0,51.0,-100.00,ENE,62,1.0,3.0,100,0.00,,,0.72,29.000000,,2013-03-01 17:32:00,
2013-03-01 09:42:00,51.0,51.0,-100.00,ENE,62,1.0,3.0,100,0.00,,,0.72,29.000000,,2013-03-01 17:42:00,
2013-03-01 09:52:00,51.0,51.0,-100.00,ENE,62,1.0,3.0,100,0.00,,,0.72,29.000000,,2013-03-01 17:52:00,
2013-03-01 10:01:00,51.0,51.0,-100.00,ENE,62,1.0,3.0,100,0.00,,,0.72,29.000000,,2013-03-01 18:01:00,
2013-03-01 10:11:00,51.0,51.0,-100.00,ENE,62,1.0,3.0,100,0.00,,,0.72,29.000000,,2013-03-01 18:11:00,
2013-03-01 10:32:00,52.0,52.0,-100.00,SW,230,3.0,6.0,100,0.00,,,0.65,58.000000,,2013-03-01 18:32:00,
2013-03-01 10:42:00,52.0,52.0,-100.00,SW,230,3.0,6.0,100,0.00,,,0.65,58.000000,,2013-03-01 18:42:00,
2013-03-01 10:52:00,52.0,52.0,-100.00,SW,230,3.0,6.0,100,0.00,,,0.65,58.000000,,2013-03-01 18:52:00,
2013-03-01 11:01:00,52.0,52.0,-100.00,SW,230,3.0,6.0,100,0.00,,,0.65,58.000000,,2013-03-01 19:01:00,
2013-03-01 11:11:00,52.0,52.0,-100.00,SW,230,3.0,6.0,100,0.00,,,0.65,58.000000,,2013-03-01 19:11:00,
2013-03-01 11:32:00,53.0,53.0,-100.00,NNE,25,2.0,4.0,100,0.01,,,0.53,104.000000,,2013-03-01 19:32:00,
2013-03-01 11:42:00,53.0,53.0,-100.00,NNE,25,2.0,4.0,100,0.01,,,0.53,104.000000,,2013-03-01 19:42:00,
2013-03-01 11:52:00,53.0,53.0,-100.00,NNE,25,2.0,4.0,100,0.01,,,0.53,104.000000,,2013-03-01 19:52:00,
2013-03-01 12:01:00,53.0,53.0,-100.00,NNE,25,2.0,4.0,100,0.01,,,0.53,104.000000,,2013-03-01 20:01:00,
2013-03-01 12:11:00,53.0,53.0,-100.00,NNE,25,2.0,4.0,100,0.01,,,0.53,104.000000,,2013-03-01 20:11:00,
2013-03-01 12:32:00,53.0,53.0,-100.00,South,185,3.0,5.0,100,0.01,,,0.42,118.000000,,2013-03-01 20:32:00,
2013-03-01 12:42:00,53.0,53.0,-100.00,South,185,3.0,5.0,100,0.01,,,0.42,118.000000,,2013-03-01 20:42:00,
2013-03-01 12:52:00,53.0,53.0,-100.00,South,185,3.0,5.0,100,0.01,,,0.42,118.000000,,2013-03-01 20:52:00,
2013-03-01 13:01:00,53.0,53.0,-100.00,South,185,3.0,5.0,100,0.01,,,0.42,118.000000,,2013-03-01 21:01:00,
2013-03-01 13:11:00,53.0,53.0,-100.00,South,185,3.0,5.0,100,0.01,,,0.42,118.000000,,2013-03-01 21:11:00,
2013-03-01 13:32:00,54.0,54.0,-100.00,SSW,200,1.0,4.0,100,0.00,,,0.35,144.000000,,2013-03-01 21:32:00,
2013-03-01 13:42:00,54.0,54.0,-100.00,SSW,200,1.0,4.0,100,0.00,,,0.35,144.000000,,2013-03-01 21:42:00,
2013-03-01 13:52:00,54.0,54.0,-100.00,SSW,200,1.0,4.0,100,0.00,,,0.35,144.000000,,2013-03-01 21:52:00,
2013-03-01 14:01:00,54.0,54.0,-100.00,SSW,200,1.0,4.0,100,0.00,,,0.35,144.000000,,2013-03-01 22:01:00,
2013-03-01 14:11:00,54.0,54.0,-100.00,SSW,200,1.0,4.0,100,0.00,,,0.35,144.000000,,2013-03-01 22:11:00,
2013-03-01 14:32:00,55.0,55.0,-100.00,WSW,256,2.0,6.0,100,0.00,,,-99.99,166.000000,,2013-03-01 22:32:00,
2013-03-01 14:42:00,55.0,55.0,-100.00,WSW,256,2.0,6.0,100,0.00,,,-99.99,166.000000,,2013-03-01 22:42:00,
2013-03-01 14:52:00,55.0,55.0,-100.00,WSW,256,2.0,6.0,100,0.00,,,-99.99,166.000000,,2013-03-01 22:52:00,
2013-03-01 15:01:00,55.0,55.0,-100.00,WSW,256,2.0,6.0,100,0.00,,,-99.99,166.000000,,2013-03-01 23:01:00,
2013-03-01 15:11:00,55.0,55.0,-100.00,WSW,256,2.0,6.0,100,0.00,,,-99.99,166.000000,,2013-03-01 23:11:00,
2013-03-01 15:32:00,55.0,55.0,-100.00,SW,219,2.0,5.0,100,0.00,,,0.27,141.000000,,2013-03-01 23:32:00,
2013-03-01 15:42:00,55.0,55.0,-100.00,SW,219,2.0,5.0,100,0.00,,,0.27,141.000000,,2013-03-01 23:42:00,
2013-03-01 15:52:00,55.0,55.0,-100.00,SW,219,2.0,5.0,100,0.00,,,0.27,141.000000,,2013-03-01 23:52:00,
2013-03-01 16:01:00,55.0,55.0,-100.00,SW,219,2.0,5.0,100,0.00,,,0.27,141.000000,,2013-03-02 00:01:00,
2013-03-01 16:11:00,55.0,55.0,-100.00,SW,219,2.0,5.0,100,0.00,,,0.27,141.000000,,2013-03-02 00:11:00,
2013-03-01 16:42:00,54.0,54.0,-100.00,NW,310,4.0,6.0,100,0.00,,,0.20,126.000000,,2013-03-02 00:42:00,
2013-03-01 16:52:00,54.0,54.0,-100.00,NW,310,4.0,6.0,100,0.00,,,0.20,126.000000,,2013-03-02 00:52:00,
2013-03-01 17:01:00,54.0,54.0,-100.00,NW,310,4.0,6.0,100,0.00,,,0.20,126.000000,,2013-03-02 01:01:00,
2013-03-01 17:11:00,54.0,54.0,-100.00,NW,310,4.0,6.0,100,0.00,,,0.20,126.000000,,2013-03-02 01:11:00,
2013-03-01 17:42:00,54.0,54.0,-100.00,WSW,257,2.0,5.0,100,0.00,,,0.17,71.000000,,2013-03-02 01:42:00,
2013-03-01 17:52:00,54.0,54.0,-100.00,WSW,257,2.0,5.0,100,0.00,,,0.17,71.000000,,2013-03-02 01:52:00,
2013-03-01 18:01:00,54.0,54.0,-100.00,WSW,257,2.0,5.0,100,0.00,,,0.17,71.000000,,2013-03-02 02:01:00,
2013-03-01 18:11:00,54.0,54.0,-100.00,WSW,257,2.0,5.0,100,0.00,,,0.17,71.000000,,2013-03-02 02:11:00,
2013-03-01 18:32:00,53.0,53.0,-100.00,South,181,2.0,5.0,100,0.00,,,0.16,18.000000,,2013-03-02 02:32:00,
2013-03-01 18:42:00,53.0,53.0,-100.00,South,181,2.0,5.0,100,0.00,,,0.16,18.000000,,2013-03-02 02:42:00,
2013-03-01 18:52:00,53.0,53.0,-100.00,South,181,2.0,5.0,100,0.00,,,0.16,18.000000,,2013-03-02 02:52:00,
2013-03-01 19:01:00,53.0,53.0,-100.00,South,181,2.0,5.0,100,0.00,,,0.16,18.000000,,2013-03-02 03:01:00,
2013-03-01 19:11:00,53.0,53.0,-100.00,South,181,2.0,5.0,100,0.00,,,0.16,18.000000,,2013-03-02 03:11:00,
2013-03-01 19:32:00,51.0,51.0,-100.00,WSW,243,1.0,5.0,100,0.00,,,0.15,0.000000,,2013-03-02 03:32:00,
2013-03-01 19:42:00,51.0,51.0,-100.00,WSW,243,1.0,5.0,100,0.00,,,0.15,0.000000,,2013-03-02 03:42:00,
2013-03-01 19:52:00,51.0,51.0,-100.00,WSW,243,1.0,5.0,100,0.00,,,0.15,0.000000,,2013-03-02 03:52:00,
2013-03-01 20:01:00,51.0,51.0,-100.00,WSW,243,1.0,5.0,100,0.00,,,0.15,0.000000,,2013-03-02 04:01:00,
2013-03-01 20:11:00,51.0,51.0,-100.00,WSW,243,1.0,5.0,100,0.00,,,0.15,0.000000,,2013-03-02 04:11:00,
2013-03-01 20:12:00,50.0,50.0,-100.00,SE,126,2.0,4.0,100,0.00,,,0.12,0.000000,,2013-03-02 04:12:00,
2013-03-01 20:32:00,50.0,50.0,-100.00,SE,126,2.0,4.0,100,0.00,,,0.12,0.000000,,2013-03-02 04:32:00,
2013-03-01 20:42:00,50.0,50.0,-100.00,SE,126,2.0,4.0,100,0.00,,,0.12,0.000000,,2013-03-02 04:42:00,
2013-03-01 20:52:00,50.0,50.0,-100.00,SE,126,2.0,4.0,100,0.00,,,0.12,0.000000,,2013-03-02 04:52:00,
2013-03-01 21:01:00,50.0,50.0,-100.00,SE,126,2.0,4.0,100,0.00,,,0.12,0.000000,,2013-03-02 05:01:00,
2013-03-01 21:32:00,50.0,50.0,-100.00,North,11,0.0,2.0,100,0.00,,,0.11,0.000000,,2013-03-02 05:32:00,
2013-03-01 21:42:00,50.0,50.0,-100.00,North,11,0.0,2.0,100,0.00,,,0.11,0.000000,,2013-03-02 05:42:00,
2013-03-01 21:52:00,50.0,50.0,-100.00,North,11,0.0,2.0,100,0.00,,,0.11,0.000000,,2013-03-02 05:52:00,
2013-03-01 22:01:00,50.0,50.0,-100.00,North,11,0.0,2.0,100,0.00,,,0.11,0.000000,,2013-03-02 06:01:00,
2013-03-01 22:11:00,50.0,50.0,-100.00,North,11,0.0,2.0,100,0.00,,,0.11,0.000000,,2013-03-02 06:11:00,
2013-03-01 22:32:00,50.0,50.0,-100.00,SE,143,2.0,4.0,100,0.00,,,-99.99,0.000000,,2013-03-02 06:32:00,
2013-03-01 22:42:00,50.0,50.0,-100.00,SE,143,2.0,4.0,100,0.00,,,-99.99,0.000000,,2013-03-02 06:42:00,
2013-03-01 22:52:00,50.0,50.0,-100.00,SE,143,2.0,4.0,100,0.00,,,-99.99,0.000000,,2013-03-02 06:52:00,
2013-03-01 23:01:00,50.0,50.0,-100.00,SE,143,2.0,4.0,100,0.00,,,-99.99,0.000000,,2013-03-02 07:01:00,
2013-03-01 23:11:00,50.0,50.0,-100.00,SE,143,2.0,4.0,100,0.00,,,-99.99,0.000000,,2013-03-02 07:11:00,
2013-03-01 23:32:00,49.0,49.0,-100.00,NNE,29,0.0,4.0,100,0.00,,,0.10,0.000000,,2013-03-02 07:32:00,
2013-03-01 23:42:00,49.0,49.0,-100.00,NNE,29,0.0,4.0,100,0.00,,,0.10,0.000000,,2013-03-02 07:42:00,
2013-03-01 23:52:00,49.0,49.0,-100.00,NNE,29,0.0,4.0,100,0.00,,,0.10,0.000000,,2013-03-02 07:52:00,